User: anonymous   Login
Location: Conflandey
(47.7287°N, 6.0456°E)
Time: 02:20:51
(UTC+00:00)
Language:

Cosmos 1328 - Orbit

View from above orbital plane
View from above orbital plane
View from above satellite
View from above satellite

Ground track
Ground track

The orbit data is extracted from the following two-line orbital elements,

1 12987U 81117A   22018.59406327  .00000965  00000-0  59418-4 0  9995
2 12987  82.5074  48.1495 0019730  29.0118 331.2202 15.08692293184839
Epoch (UTC): 18 January 2022 14:15:27
Eccentricity: 0.0019730
inclination: 82.5074°
perigee height: 526 km
apogee height: 554 km
right ascension of ascending node: 48.1495°
argument of perigee: 29.0118°
revolutions per day: 15.08692293
mean anomaly at epoch: 331.2202°
orbit number at epoch: 18483

The dashed part of the orbit path shows where the satellite is in the earth's shadow,  

DLR